Погода в Здвинске

Россия / Новосибирская область     54°42′08″N   78°39′42″E
темп.,
°C
ветер,
м/с
пор.,
м/с
влажн.,
%
обл.,
%
осадки,
мм/ч
давл.,
гПа
погр.,
м
11 мая, вт
вт1101:00+11ссв612525 0.0 1020372
04:00+7ссв410684 0.0 1019214
07:00+7с5107174 0.0 1019268
10:00+12ссв585399 0.0 1019608
13:00+16св6838100 0.0 10192383
16:00+17св5736100 0.0 10202225
19:00+17с673819 0.0 10201814
22:00+12с495011 0.0 1022161
12 мая, ср
ср1201:00+10с35593 0.0 102271
04:00+9ссв35640 0.0 102268
07:00+8ссз346694 0.0 102282
10:00+14ссз344563 0.0 1022461
13:00+17ссз4431100 0.0 10211708
16:00+19сз4624100 0.0 10191896
19:00+19зсз3628100 0.0 10181751
22:00+16зюз3447100 0.0 1018113
13 мая, чт
чт1301:00+14зсз245871 0.1 1017134
04:00+10сз4890100 0.3 1016208
07:00+10ссз61076100 0.3 1017549
10:00+11ссз79618 0.0 1017933
13:00+15ссз793123 0.0 10171609
16:00+17ссз6828100 0.0 10162000
19:00+16ссз583083 0.0 10161804
22:00+12ссз33435 0.0 101730
14 мая, пт
пт1401:00+12ссв374556 0.0 1018162
04:00+10сз366551 0.0 1018139
07:00+11с5106913 0.0 1020500
10:00+12с6766100 0.0 1022944
13:00+14ссз67455 0.0 10231321
16:00+17ссз57295 0.0 10231614
19:00+17ссз562512 0.0 10241397
22:00+12зсз223891 0.0 102515
15 мая, сб
сб1501:00+11з224149 0.0 102418
04:00+10зюз45435 0.0 102470
07:00+10зюз49535 0.0 1024157
10:00+17зюз69355 0.0 1023584
13:00+22зюз673018 0.0 10211088
16:00+25з673330 0.0 10201898
19:00+24зюз47368 0.0 10181440
22:00+19зюз235596 0.4 101844